SCP
0 0 0 0 0 0 0 0 0 0 0 0 0 0 0 0 0 0 0 0 0 0 0 0 0 0 0 0 0 0 0 0 0 0 0 0 0 0 0 0 0 0 0
0 0 0 0 0 0 0 0 0 0 0 0 0 0 0 0 0 0 0 0 0 0 0 0 0 0 0 0 0 0 0 0 0 0 0 0 0 0 0 0 0 0 0
1 1 1 1 1 0 0 0 0 0 0 0 0 0 0 0 0 0 0 0 0 0 0 0 0 0 0 0 0 0 0 0 0 0 0 0 0 0 0 0 0 0 0
1 1 1 1 1 1 0 0 0 0 0 0 0 0 0 0 0 0 0 0 0 0 0 0 0 0 0 0 0 0 0 0 0 0 0 0 0 0 0 0 0 0 0
1 1 1 1 1 1 1 0 0 0 0 0 0 0 0 0 0 0 0 0 0 0 0 0 0 0 0 0 0 0 0 0 0 0 0 0 0 0 0 0 0 0 0
1 1 1 1 1 1 1 1 0 0 0 0 0 0 0 0 0 0 0 0 0 0 0 0 0 0 0 0 0 0 0 0 0 0 0 0 0 0 0 0 0 0 0
1 1 1 1 1 1 1 1 0 0 0 0 0 0 0 0 0 0 0 0 0 0 0 0 0 0 0 0 0 0 0 0 0 0 0 0 0 0 0 0 0 0 0
1 1 1 1 1 1 1 1 1 0 0 0 0 0 0 0 0 0 0 0 0 0 0 0 0 0 0 0 0 0 0 0 0 0 0 0 0 0 0 0 0 0 0
1 1 1 1 1 1 1 1 1 0 0 0 0 0 0 0 0 0 0 0 0 0 0 0 0 0 0 0 0 0 0 0 0 0 0 0 0 0 0 0 0 0 0
1 1 1 1 1 1 1 1 1 1 0 0 0 0 0 0 0 0 0 0 0 0 0 0 0 0 0 0 0 0 0 0 0 0 0 0 0 0 0 0 0 0 0
1 1 1 1 1 1 1 1 1 1 0 0 0 0 0 0 0 0 0 0 0 0 0 0 0 0 0 0 0 0 0 0 0 0 0 0 0 0 0 0 0 0 0
1 1 1 0 0 0 1 1 0 0 0 0 0 0 0 0 0 0 0 0 0 0 0 0 0 0 0 0 0 0 0 0 0 0 0 0 0 0 0 0 0 0 0
1 0 0 0 0 0 0 0 0 0 0 0 0 0 0 0 0 0 0 0 0 0 0 0 0 0 0 0 0 0 0 0 0 0 0 0 0 0 0 0 0 0 0
0 0 0 0 0 0 0 0 0 0 0 0 0 0 0 0 0 0 0 0 0 0 0 0 0 0 0 0 0 0 0 0 0 0 0 0 0 0 0 0 0 0 0
0 0 0 0 0 0 0 0 0 0 0 0 0 0 0 0 0 0 0 0 0 0 0 0 0 0 0 0 0 0 0 0 0 0 0 0 0 0 0 0 0 0 0
0 0 0 0 0 0 0 0 0 0 0 0 0 0 0 0 0 0 0 0 0 0 0 0 0 0 0 0 0 0 0 0 0 0 0 0 0 0 0 0 0 0 0
0 0 0 0 0 0 0 0 0 0 0 0 0 0 0 0 0 0 0 0 0 0 0 0 0 0 0 0 0 0 0 0 0 0 0 0 0 0 0 1 1 0 0
0 0 0 0 0 0 0 0 0 0 0 0 0 0 0 0 0 1 1 0 0 0 0 0 0 0 0 0 0 0 0 0 0 0 0 0 0 0 0 0 0 0 0
0 0 0 0 0 0 0 0 0 0 0 1 1 1 1 1 1 1 1 1 0 0 0 0 0 0 0 0 0 0 0 0 0 0 0 0 0 0 0 0 0 0 0
0 0 0 0 0 0 0 0 0 0 1 0 0 1 1 1 1 1 1 1 1 1 0 0 0 0 0 0 0 0 0 0 0 0 0 0 0 0 0 0 0 0 0
0 0 0 0 0 0 0 0 0 0 0 0 0 0 0 1 1 1 1 1 1 1 0 0 0 0 0 0 0 0 0 0 0 0 0 0 0 0 0 0 0 0 0
0 0 0 0 0 0 0 0 0 0 0 0 0 0 0 0 0 1 1 1 0 0 0 0 0 0 0 0 0 0 0 0 0 0 0 0 0 0 0 0 0 0 0
0 0 0 0 0 0 0 0 0 0 0 0 0 0 0 0 0 0 0 0 0 0 0 0 0 0 0 0 0 0 0 0 0 0 0 0 0 0 0 0 0 0 0
0 0 0 0 0 0 0 0 0 0 0 0 0 0 0 0 0 0 0 0 0 0 0 0 0 0 0 0 0 0 0 0 0 0 0 0 0 0 0 0 0 0 0
0 0 0 0 0 0 0 0 0 0 0 0 0 0 0 0 0 0 0 0 0 0 0 0 0 0 0 0 0 0 0 0 0 0 0 0 0 0 0 0 0 0 0
0 0 0 0 0 0 0 0 0 0 0 0 0 0 0 0 0 0 0 0 0 0 0 0 0 0 0 0 0 0 0 0 0 0 0 0 0 0 0 0 0 0 0
Wind_Speed
8 9 16 17 17 17 17 18 18 19 19 19 19 19 20 20 19 19 18 17 16 15 15 14 14 14 14 15 16 17 17 18 18 18 17 16 16 17 18 17 16 12 17
13 11 16 17 17 17 17 17 18 18 18 18 18 18 18 18 17 17 17 16 15 15 14 14 13 14 14 15 15 15 16 16 16 16 16 15 16 16 16 16 15 11 16
15 12 15 17 17 18 17 17 17 17 17 17 17 17 17 16 16 16 15 14 14 13 13 13 12 13 13 13 14 14 14 14 14 15 14 8 10 16 16 16 16 15 15
16 12 13 17 17 17 17 17 17 17 17 17 16 16 16 15 14 14 14 13 13 12 12 12 11 11 11 11 11 12 12 12 11 12 6 5 7 15 16 16 15 15 14
13 11 13 18 16 17 17 17 16 16 16 16 15 15 15 14 13 12 13 12 12 11 11 11 10 10 9 9 9 9 9 8 7 7 5 5 6 13 15 15 14 14 13
11 10 13 17 16 16 17 17 16 16 15 15 15 14 13 13 12 11 11 12 11 10 10 10 9 8 8 7 7 6 5 5 5 4 5 5 5 13 15 14 14 13 12
10 8 11 15 15 16 16 16 16 15 14 13 13 13 12 11 10 10 10 11 10 10 9 9 8 7 6 6 5 4 3 3 4 4 4 5 6 13 14 14 13 13 12
9 7 8 14 16 15 16 15 14 14 14 13 12 12 12 11 10 10 10 10 10 9 9 9 8 7 5 4 3 3 2 1 4 4 5 5 9 13 14 13 13 12 11
8 7 5 7 10 14 14 14 13 13 13 12 12 12 11 11 10 10 9 9 9 9 9 8 8 7 5 4 3 2 0 2 2 2 6 5 11 14 14 13 12 12 11
7 6 5 5 5 6 8 13 14 13 12 12 12 12 12 11 10 10 8 8 9 9 9 8 7 7 5 4 3 2 1 1 2 2 3 6 13 14 14 13 12 12 11
7 5 5 5 4 4 5 9 10 12 11 11 10 12 10 5 5 5 7 9 9 9 8 8 7 7 6 5 4 4 2 1 1 2 3 9 14 15 14 14 13 12 11
5 4 4 5 5 4 5 5 4 5 5 5 4 6 4 4 3 5 6 9 9 9 8 8 8 7 5 2 3 4 1 1 1 2 4 11 13 14 14 14 13 12 11
3 3 2 3 4 4 3 3 2 2 3 4 5 5 4 4 3 3 2 4 5 6 4 4 5 3 2 2 2 2 2 1 1 2 4 11 12 13 14 14 13 12 11
4 3 2 2 3 2 3 3 3 3 3 3 4 6 4 3 3 3 3 4 3 2 3 3 2 3 3 3 3 3 2 2 2 2 4 11 12 13 14 14 13 12 11
3 3 2 1 1 2 2 2 3 3 3 4 4 5 5 4 4 4 3 3 3 3 3 3 3 3 3 3 3 3 2 3 3 3 2 9 11 12 13 14 13 12 11
4 4 2 1 1 1 1 1 2 2 3 3 3 4 5 4 4 4 4 3 3 3 3 3 4 4 3 2 2 2 2 2 2 3 3 5 9 11 12 13 13 12 11
3 2 3 2 0 0 1 1 1 2 2 2 3 3 4 4 4 4 4 4 4 4 3 3 3 3 2 2 2 2 2 3 2 2 3 2 3 8 11 11 12 11 12
3 4 4 2 1 1 0 1 1 1 2 2 2 2 3 3 3 3 3 3 3 3 3 3 3 3 2 2 2 1 1 2 3 3 3 3 2 3 7 10 10 11 11
5 5 5 4 3 2 1 0 0 1 1 1 2 2 2 2 3 3 3 3 3 3 2 3 3 3 3 3 2 1 1 2 2 3 3 3 3 3 3 7 10 10 10
5 5 5 5 5 4 2 1 1 2 1 1 1 1 1 1 2 2 2 2 2 2 2 2 2 2 3 3 2 1 1 1 2 2 3 3 3 3 3 4 5 6 10
5 5 5 5 4 4 2 1 1 1 1 1 1 1 1 1 1 2 1 1 2 2 2 3 2 3 2 3 2 1 1 1 2 1 2 3 3 3 3 3 3 3 4
6 5 5 4 5 4 3 2 1 0 1 2 2 2 3 2 2 1 1 0 1 2 2 3 3 2 3 3 3 2 1 0 1 1 1 2 3 3 3 3 3 4 4
7 6 6 6 6 6 6 3 3 3 3 3 3 3 3 3 3 3 2 1 0 1 1 2 3 4 4 3 3 4 4 4 1 0 1 1 2 3 3 3 3 4 5
6 6 6 6 6 6 6 5 5 4 3 2 2 2 3 4 4 3 3 2 1 0 0 1 2 3 4 4 2 2 2 4 4 2 0 1 2 2 2 3 3 4 4
6 6 5 6 6 6 7 6 6 5 3 2 3 4 4 4 4 4 3 2 2 1 2 2 1 2 3 3 3 2 2 2 2 4 3 2 2 2 2 2 2 3 4
6 6 5 6 6 6 7 6 6 6 5 5 5 5 4 3 4 5 4 3 2 2 2 2 1 1 2 3 3 2 3 3 4 4 4 4 3 2 2 2 2 3 3
Wind_Direction
149 157 149 139 132 127 122 118 115 113 111 110 109 108 109 111 113 116 117 117 117 116 114 112 110 110 109 109 110 111 112 114 114 114 112 111 113 113 111 109 106 103 105
147 152 148 141 136 132 128 123 120 118 116 114 112 111 111 112 114 115 116 116 116 116 115 114 113 113 112 113 114 115 117 119 117 115 111 109 112 114 113 112 110 111 109
141 147 146 143 139 135 132 128 125 123 121 118 116 114 112 112 114 115 117 117 117 117 116 115 115 114 114 116 117 118 119 120 117 113 108 103 108 114 116 114 113 112 111
141 142 145 144 142 138 135 132 130 128 125 122 120 118 117 116 115 117 118 119 119 119 118 117 116 116 116 117 118 120 122 124 123 120 113 114 114 118 119 118 117 116 115
136 136 145 144 143 141 139 136 134 132 131 129 127 125 123 122 121 120 122 123 123 122 122 121 120 120 120 119 118 118 119 123 126 119 120 117 116 126 125 124 122 120 118
131 133 142 144 144 143 142 141 139 138 137 136 134 132 131 130 129 128 129 129 128 127 127 127 127 126 125 123 120 114 113 117 117 110 123 131 131 135 133 131 128 125 123
125 128 139 142 143 144 145 144 144 144 143 143 142 141 140 138 137 137 136 137 136 136 135 135 135 134 134 130 125 114 105 102 119 132 146 150 150 144 140 136 134 132 130
115 115 130 141 145 147 148 148 148 148 148 149 150 149 147 147 146 145 145 145 145 144 144 144 144 146 147 145 137 120 95 80 114 134 156 162 160 151 147 144 142 140 137
104 107 114 136 144 148 149 149 150 152 153 154 155 155 155 155 155 154 154 154 154 153 154 154 157 160 164 166 166 157 96 72 107 139 162 167 166 158 153 151 149 148 146
106 110 111 113 123 135 144 150 152 154 155 158 160 162 162 162 163 165 163 164 164 164 164 165 169 174 179 187 197 208 239 61 117 157 161 178 173 165 161 159 157 156 154
103 101 102 111 111 120 139 152 152 156 159 161 164 167 163 159 163 169 174 174 174 174 175 179 182 187 194 210 225 235 251 107 149 161 169 187 177 170 167 165 165 164 163
97 102 109 127 132 137 151 141 148 158 159 159 163 164 157 158 172 180 188 186 185 185 188 191 195 198 200 217 249 252 225 168 181 178 187 189 183 175 172 171 171 171 170
71 77 85 131 137 148 144 148 154 154 157 165 169 166 164 166 175 186 184 194 194 194 194 201 201 201 199 206 223 228 216 183 183 193 194 191 189 182 177 176 175 175 175
71 58 59 97 112 133 146 158 167 163 170 177 182 178 174 177 181 183 189 187 187 189 191 193 198 206 215 226 224 223 212 188 183 188 203 197 195 189 182 180 179 179 178
101 79 39 52 116 130 147 179 172 174 177 181 182 185 182 181 183 185 186 185 190 193 195 194 203 210 214 226 227 215 200 189 184 181 207 202 199 191 183 180 180 180 178
147 135 123 360 341 117 151 188 192 172 178 182 187 193 190 188 186 182 183 186 194 203 201 197 203 209 213 205 206 205 181 169 178 179 189 200 197 191 185 182 180 178 175
140 120 108 119 327 234 177 206 190 181 170 174 190 199 197 195 188 188 186 190 200 207 205 198 204 198 197 183 179 179 157 152 161 172 172 184 194 198 189 179 173 172 173
84 63 56 63 351 331 12 212 173 175 164 170 181 190 196 201 191 185 187 196 198 186 191 194 186 183 181 173 175 171 151 149 146 155 158 171 174 179 177 171 170 169 171
78 59 40 27 10 350 347 7 124 145 146 160 155 166 189 193 183 175 183 195 189 177 184 194 173 171 173 174 175 165 147 137 151 159 161 164 163 162 159 162 162 164 164
67 56 36 21 9 353 345 29 67 93 104 98 102 134 161 187 174 162 176 186 182 179 189 184 175 176 171 162 149 116 79 117 131 148 168 162 161 161 151 152 153 156 153
61 52 41 32 10 10 359 8 28 61 70 67 70 72 75 87 122 124 147 175 180 192 209 194 173 174 171 148 119 101 25 50 114 155 155 150 146 148 141 147 142 136 146
67 60 50 36 21 14 0 335 318 89 73 73 54 43 39 46 50 87 85 130 195 194 200 198 181 178 185 177 153 145 170 334 61 82 120 142 142 132 137 149 137 136 134
65 57 53 35 25 16 8 8 21 40 43 37 32 23 17 37 47 46 38 44 34 175 198 204 190 189 198 202 186 165 169 191 159 77 131 131 139 139 139 130 131 132 131
70 59 51 37 32 23 20 33 46 55 55 31 24 29 17 29 36 33 22 12 15 2 278 250 204 201 191 198 212 207 180 154 154 159 123 74 88 110 128 139 138 131 125
79 67 51 42 36 32 35 38 51 50 44 33 33 38 27 19 20 17 10 358 357 345 320 301 272 229 204 199 196 190 179 150 139 148 162 159 103 64 75 97 115 121 118
75 67 56 51 41 35 43 43 50 55 50 46 35 32 23 15 12 12 11 8 357 340 326 308 291 267 230 212 204 190 178 173 173 157 154 154 138 96 64 69 88 101 110